Find Starlink 30171

NORAD ID: 57469 Int'l Des: 2023-107 Owner: SPXS Country: US Constellation: starlink operational
LEOCIRCULAR

实时位置

正在加载3D地球...

关于 Starlink 30171

正在加载描述...

即将过境

Passes for default location (London). Set your location on the main map for personalized predictions.

高度历史

Loading altitude history...

两行轨道根数

1 57469U 23107N 26130.32146378 .00002056 00000-0 84231-4 0 9995
2 57469 43.0043 351.3858 0001213 266.5271 93.5442 15.27577570154537
Epoch: May 10, 2026 • Age: 13 hours

当前状态

高度 488.3 km
速度 7.62 km/s
星下点 -23.78°S, 9.4°E
发射日期 Jul 28, 2023
运行时间 2.7 years
类型 internet

技术详情

分类 Payload
质量 730.00 kg
干质量 700.00 kg
总质量 730.00 kg
长度 0.30 m
直径 4.10 m
跨度 29.00 m
形状 Box + pan
制造商 SPXS
平台类型 Starlink V2M
阶段状态 In Orbit
所有者/国家 SPXS/US

Most Searched